Regional Weather Roundup
Issued by NWS

Home | Current Version | Previous Version | Graphics & Text | Print | Product List | Glossary On
Versions: 1 2 3 4 5 6 7 8 9 10 11 12 13 14 15 16 17 18 19 20 21 22 23 24 25 26 27
000
ASUS45 KTFX 282110
RWRMT
MONTANA REGIONAL WEATHER ROUNDUP
NATIONAL WEATHER SERVICE GREAT FALLS MT
300 PM MDT SUN MAY 28 2017

NOTE: "FAIR" INDICATES FEW OR NO CLOUDS BELOW 12000 FEET WITH NO
SIGNIFICANT WEATHER AND/OR OBSTRUCTIONS TO VISIBILITY.

MTZ001>007-043-282200-
WEST OF THE DIVIDE

CITY           SKY/WX    TMP DP  RH WIND       PRES   REMARKS
KALISPELL      MOSUNNY   77  42  28 SE5       30.16F
MISSOULA       SUNNY     78  37  22 W5        30.17F
BUTTE          PTSUNNY   70  38  31 E9        30.26F
MULLAN PASS    CLOUDY    65  34  31 CALM      30.31F
ANACONDA         N/A     72  32  23 SW5       30.24S
DEER LODGE       N/A     72  30  21 NE7       30.24F
EUREKA           N/A     79  36  21 N6        30.15F
HAMILTON         N/A     77  36  22 NE3       30.18F
RONAN            N/A     77  43  29 SW6       30.21F
$$

MTZ008-052>055-282200-
SOUTHWEST MONTANA

CITY           SKY/WX    TMP DP  RH WIND       PRES   REMARKS
BOZEMAN        SUNNY     72  39  30 NW9       30.22F
DILLON         SUNNY     71  31  22 N6        30.24F
ENNIS          MOSUNNY   70  34  26 N8G15     30.29F
THREE FORKS      N/A     73  35  24 NE6       30.19F
$$

MTZ009-010-012-014-046-048-049-054-282200-
EAST SLOPES AND CENTRAL MONTANA

CITY           SKY/WX    TMP DP  RH WIND       PRES   REMARKS
CUT BANK       MOSUNNY   71  40  32 NE10      30.23F
GREAT FALLS    MOSUNNY   72  41  32 NE6       30.22F
MALMSTROM AFB  MOSUNNY   71  42  35 E10       30.22F
HELENA         CLOUDY    71  41  33 NW9       30.22R
CHOTEAU          N/A     66  46  48 W10       30.26R
CONRAD           N/A     74  48  39 NE5       30.23F
$$

MTZ011-013-016-021-045-047-050-051-282200-
NORTH CENTRAL MONTANA

CITY           SKY/WX    TMP DP  RH WIND       PRES   REMARKS
HAVRE          SUNNY     76  36  23 NW17G28   30.17S
LEWISTOWN      MOSUNNY   66  44  45 N18G31    30.24R
N BAR RANCH    PTSUNNY   66  37  34 NW24G33   30.24S
CHINOOK          N/A     73  36  25 NW17G26   30.16S
$$

MTZ017>020-022>027-061-062-282200-
NORTHEAST MONTANA

CITY           SKY/WX    TMP DP  RH WIND       PRES   REMARKS
GLASGOW        SUNNY     74  31  20 N18G32    30.08S
JORDAN           N/A     77  30  17 NW30G43   30.08F
SIDNEY         MOSUNNY   73  34  23 N24G33    30.00R
WOLF POINT     MOSUNNY   75  32  20 N20G32    30.05S
MALTA          SUNNY     73  28  19 N24G37    30.12S
PLENTYWOOD       N/A     66  30  26 NW29G43   29.99S
POPLAR           N/A     70  32  24 NW21G35   30.04S
$$

MTZ028>42-056>058-282200-
SOUTHCENTRAL AND SOUTHEAST MONTANA

CITY           SKY/WX    TMP DP  RH WIND       PRES   REMARKS
BAKER          MOSUNNY   74  33  22 NW32G44   30.02S
BILLINGS       CLOUDY    77  30  17 N9G20     30.17S
LIVINGSTON     CLOUDY    64  51  62 E13       30.25R
MILES CITY     MOSUNNY   77  31  18 N23G38    30.05R
BIG TIMBER     CLOUDY    59  43  55 N10G29    30.30R
FORSYTH          N/A     73  37  27 W23G32    30.08R
LAUREL           N/A     72  40  31 W14       30.16F
ROUNDUP          N/A     67  38  34 N16       30.09R
$$

REGIONAL REPORTS...DAKOTAS

CITY           SKY/WX    TMP DP  RH WIND       PRES   REMARKS
WILLISTON      PTSUNNY   70  34  26 N26G32    29.99S
MINOT          PTSUNNY   66  38  35 NW28G45   29.88R
DICKINSON      MOSUNNY   71  30  21 N29G37    29.93S
BEACH            N/A     72  30  21 NW28G39   30.04R
CROSBY         PTSUNNY   66  34  30 N26G38    29.96S
TIOGA            N/A     68  34  28 NW28G38   29.97S
WATFORD CITY     N/A     70  34  26 NW26G35   29.96S
BISMARCK       MOSUNNY   73  39  29 NW22G35   29.85F
GRAND FORKS    PTSUNNY   64  51  62 N14       29.72R
FARGO          PTSUNNY   67  41  38 NW38G59   29.72S HAZE
BUFFALO SD       N/A     69  48  47 NW23      29.94F
RAPID CITY     SUNNY     76  38  25 NW16G25   30.02F
$$

REGIONAL REPORTS...WYOMING/IDAHO/WASHINGTON

CITY           SKY/WX    TMP DP  RH WIND       PRES   REMARKS
GILLETTE       MOSUNNY   71  39  31 NW22G33   30.13F
SHERIDAN       PTSUNNY   61  42  49 N18G39    30.20R
BUFFALO WY     SUNNY     69  35  28 N29G38    30.20F
CODY           SUNNY     67  36  31 VRB5      30.26R
YELLOWSTONE LA   N/A     50  36  58 CALM      30.38F
IDAHO FALLS    MOSUNNY   72  36  26 SW6       30.25F
SALMON         SUNNY     73  37  27 CALM      30.17F
BOISE          SUNNY     82  37  20 S8        30.15F
SPOKANE        MOSUNNY   82  40  22 NE7       30.14F
$$

REGIONAL REPORTS...ALBERTA

CITY           SKY/WX    TMP DP  RH WIND       PRES   REMARKS
EDMONTON       SUNNY     64  36  34 N8G17     30.27S
CALGARY        MOSUNNY   68  36  30 VRB3      30.25F
MEDICINE HAT   MOSUNNY   72  37  28 NW14G28   30.19F
WATERTON GATE    N/A     70  43  37 NE7         N/A
CARDSTON         N/A     72  39  30 E6          N/A
MILK RIVER       N/A     72  43  35 N10         N/A
$$

REGIONAL REPORTS...SASKATCHEWAN

CITY           SKY/WX    TMP DP  RH WIND       PRES   REMARKS
SWIFT CURRENT  SUNNY     66  27  22 N28G39    30.11S
REGINA         PTSUNNY   64  39  39 N22G37    30.01R
SASKATOON      PTSUNNY   66  39  37 N24G31    30.11R
CYPRESS HILLS    N/A     61  30  31 N12G28      N/A
VAL MARIE        N/A     70  34  26 N22G30      N/A
ROCKGLEN         N/A     64  34  32 N22G30      N/A
$$




USA.gov is the U.S. government's official web portal to all federal, state and local government web resources and services.